DW8791 Hull UK current weather conditions

sailwx.info

Wind from 233 at 0 knots gusting 5

Air temperature 19.4° C
Dewpoint 11.0° C

Last reported at 2019-Jun-18 12:06 UTC.
Time now 2019-Jun-18 12:56 UTC

Location: N 53°44' W 000°23'.
View on Google Maps.

See reports from other nearby stations

  
Tides and Currents Weather Stations Pressure Air Temp Water Temp Dewpoint Dewpoint Depression Visibility Wind Speed Wind Dir Waves Ship Positions
date/time (UTC)wind fromknots sea level pressurealtimeterstation pressurevisibilityair tempwater tempwave heightnotes
2019-Jun-18 12:06 233 0 gusting 5 19.4
2019-Jun-18 12:01 238 2 gusting 4 19.4
2019-Jun-18 11:46 231 19.4
2019-Jun-18 11:41 245 2 gusting 6 19.4
2019-Jun-18 11:36 239 2 gusting 6 19.4
2019-Jun-18 11:31 278 2 gusting 6 19.4
2019-Jun-18 11:16 310 1 gusting 7 19.4
2019-Jun-18 11:11 298 2 gusting 7 19.4
2019-Jun-18 11:06 313 3 gusting 6 19.4
2019-Jun-18 11:01 228 1 gusting 6 19.4
2019-Jun-18 10:46 220 2 gusting 6 19.4
2019-Jun-18 10:41 204 3 gusting 7 19.4
2019-Jun-18 10:36 221 3 gusting 7 19.4
2019-Jun-18 10:31 215 2 gusting 10 19.4
2019-Jun-18 10:16 281 1 gusting 10 19.4
2019-Jun-18 10:11 253 1 gusting 10 19.4
2019-Jun-18 10:06 227 2 gusting 10 19.4
2019-Jun-18 10:01 316 4 gusting 7 18.9
2019-Jun-18 09:46 227 1 gusting 5 18.3
2019-Jun-18 09:41 224 0 gusting 5 18.3
2019-Jun-18 09:36 250 1 gusting 4 18.3
2019-Jun-18 09:31 284 1 gusting 5 17.8
2019-Jun-18 09:16 216 1 gusting 6 17.8
2019-Jun-18 09:11 238 2 gusting 6 17.8
2019-Jun-18 09:06 299 0 gusting 5 17.8
2019-Jun-18 09:01 234 0 gusting 5 17.2
2019-Jun-18 08:46 226 2 gusting 6 17.2
2019-Jun-18 08:41 245 0 gusting 4 17.2
2019-Jun-18 08:36 293 1 gusting 4 17.2
2019-Jun-18 08:31 213 0 gusting 6 17.2
2019-Jun-18 08:16 240 2 gusting 6 16.7
2019-Jun-18 08:11 225 1 gusting 5 16.7
2019-Jun-18 08:06 227 1 gusting 4 16.7
2019-Jun-18 08:01 226 2 gusting 6 16.7
2019-Jun-18 07:46 230 0 gusting 6 16.1
2019-Jun-18 07:41 226 0 gusting 6 15.6
2019-Jun-18 07:36 246 0 gusting 4 15.6
2019-Jun-18 07:31 226 1 gusting 6 15.6
2019-Jun-18 07:16 223 1 gusting 5 15.6
2019-Jun-18 07:11 228 0 gusting 7 15.0
2019-Jun-18 07:06 233 2 gusting 7 15.0
2019-Jun-18 07:01 225 2 gusting 7 15.0
2019-Jun-18 06:46 229 15.0
2019-Jun-18 06:41 230 1 gusting 5 15.0
2019-Jun-18 06:36 222 1 gusting 5 14.4
2019-Jun-18 06:31 210 14.4
2019-Jun-18 06:16 225 2 gusting 4 13.9
2019-Jun-18 06:11 235 0 gusting 2 13.9
2019-Jun-18 06:06 236 0 gusting 2 13.9
2019-Jun-18 06:01 230 0 gusting 4 13.9
2019-Jun-18 05:46 234 0 gusting 2 13.3
2019-Jun-18 05:41 191 0 gusting 2 13.3
2019-Jun-18 05:36 188 13.3
2019-Jun-18 05:31 213 0 gusting 2 13.3
2019-Jun-18 05:16 173 1 gusting 2 12.8
2019-Jun-18 05:11 241 12.8
2019-Jun-18 05:06 242 12.8
2019-Jun-18 05:01 242 12.8
2019-Jun-18 04:46 242 12.8
2019-Jun-18 04:41 242 12.8
2019-Jun-18 04:36 242 12.8
2019-Jun-18 04:31 242 12.8
2019-Jun-18 04:16 242 12.8
2019-Jun-18 04:11 242 12.8
2019-Jun-18 04:06 242 12.8
2019-Jun-18 04:01 242 12.8
2019-Jun-18 03:46 242 12.8
2019-Jun-18 03:41 242 12.8
2019-Jun-18 03:36 242 12.8
2019-Jun-18 03:31 242 12.8
2019-Jun-18 03:16 243 12.8
2019-Jun-18 03:11 243 12.8
2019-Jun-18 03:06 243 12.8
2019-Jun-18 03:01 243 12.8
2019-Jun-18 02:46 243 13.3
2019-Jun-18 02:41 243 13.3
2019-Jun-18 02:36 243 13.3
2019-Jun-18 02:31 243 13.3
2019-Jun-18 02:16 243 13.3
2019-Jun-18 02:11 243 13.3
2019-Jun-18 02:06 243 13.3
2019-Jun-18 02:01 243 13.3
2019-Jun-18 01:46 243 13.3
2019-Jun-18 01:41 243 13.9
2019-Jun-18 01:36 243 13.9
2019-Jun-18 01:31 243 13.9
2019-Jun-18 01:16 335 13.9
2019-Jun-18 01:11 335 13.9
2019-Jun-18 01:06 335 13.9
2019-Jun-18 01:01 335 14.4
2019-Jun-18 00:46 207 0 gusting 2 14.4
2019-Jun-18 00:41 336 14.4
2019-Jun-18 00:36 345 0 gusting 2 14.4
2019-Jun-18 00:31 223 0 gusting 1 14.4
2019-Jun-18 00:16 223 15.0
2019-Jun-18 00:11 223 15.0
2019-Jun-18 00:06 223 15.0
2019-Jun-18 00:01 223 0 gusting 2 15.0
2019-Jun-17 23:46 234 0 gusting 4 15.0
2019-Jun-17 23:41 317 15.0
2019-Jun-17 23:36 317 15.0
2019-Jun-17 23:31 317 15.0
2019-Jun-17 23:16 317 15.0
2019-Jun-17 23:11 317 15.0
2019-Jun-17 23:06 317 15.0
2019-Jun-17 23:01 317 15.0
2019-Jun-17 22:46 317 15.6
2019-Jun-17 22:41 317 15.6
2019-Jun-17 22:36 317 15.6
2019-Jun-17 22:31 317 15.6
2019-Jun-17 22:16 317 15.6
2019-Jun-17 22:11 317 15.6
2019-Jun-17 22:06 317 15.6
2019-Jun-17 22:01 317 15.6
2019-Jun-17 21:46 317 15.6
2019-Jun-17 21:41 317 15.6
2019-Jun-17 21:36 317 15.6
2019-Jun-17 21:31 317 16.1
2019-Jun-17 21:16 317 16.1
2019-Jun-17 21:11 317 16.1
2019-Jun-17 21:06 317 16.1
2019-Jun-17 21:01 317 16.1
2019-Jun-17 20:46 317 16.7
2019-Jun-17 20:41 317 16.7
2019-Jun-17 20:36 317 16.7
2019-Jun-17 20:31 317 0 gusting 2 16.7
2019-Jun-17 20:16 304 1 gusting 4 16.7
2019-Jun-17 20:11 300 2 gusting 5 17.2
2019-Jun-17 20:06 300 1 gusting 7 17.2
2019-Jun-17 20:01 298 2 gusting 7 17.2
2019-Jun-17 19:46 305 1 gusting 6 17.8
2019-Jun-17 19:41 315 1 gusting 6 17.8
2019-Jun-17 19:36 292 2 gusting 6 17.8
2019-Jun-17 19:31 296 2 gusting 6 17.8
2019-Jun-17 19:16 005 1 gusting 6 18.3
2019-Jun-17 19:11 311 0 gusting 6 18.9
2019-Jun-17 19:06 289 3 gusting 6 18.9
2019-Jun-17 19:01 312 2 gusting 6 18.9
2019-Jun-17 18:46 232 0 gusting 4 19.4
2019-Jun-17 18:41 301 1 gusting 4 19.4
2019-Jun-17 18:36 271 19.4
2019-Jun-17 18:31 231 2 gusting 7 19.4
2019-Jun-16 23:01 192 3 gusting 7 15.0
2019-Jun-16 22:46 213 2 gusting 7 15.0
2019-Jun-16 22:41 213 2 gusting 11 15.0
2019-Jun-16 22:36 211 3 gusting 12 15.0
2019-Jun-16 22:31 209 4 gusting 12 15.0
2019-Jun-16 22:16 197 2 gusting 10 15.0
2019-Jun-16 22:11 208 4 gusting 10 15.6
2019-Jun-16 22:06 215 1 gusting 11 15.6
2019-Jun-16 22:01 231 2 gusting 11 15.6
2019-Jun-16 21:46 216 2 gusting 11 15.6
2019-Jun-16 21:41 223 2 gusting 10 15.6
2019-Jun-16 21:36 182 2 gusting 10 15.6
2019-Jun-16 21:31 224 3 gusting 7 16.1
2019-Jun-16 21:16 196 2 gusting 7 16.1
2019-Jun-16 21:11 222 2 gusting 7 16.7
2019-Jun-16 21:06 212 1 gusting 6 16.7
2019-Jun-16 21:01 218 2 gusting 6 16.7
2019-Jun-16 20:46 201 1 gusting 8 16.7
2019-Jun-16 20:41 225 2 gusting 12 16.7
2019-Jun-16 20:36 227 5 gusting 12 16.7
2019-Jun-16 20:31 217 2 gusting 6 16.7
2019-Jun-16 20:16 227 1 gusting 4 16.7
2019-Jun-16 20:11 191 1 gusting 4 16.7
2019-Jun-16 20:06 183 1 gusting 5 16.7
2019-Jun-16 20:01 189 1 gusting 5 17.2
2019-Jun-16 19:46 231 17.2
2019-Jun-16 19:41 231 17.2
2019-Jun-16 19:36 231 0 gusting 5 17.2
2019-Jun-16 19:31 230 17.2
2019-Jun-16 19:16 226 2 gusting 7 17.8
2019-Jun-16 19:11 223 2 gusting 8 17.8
2019-Jun-16 19:06 229 2 gusting 8 17.8
2019-Jun-16 19:01 220 3 gusting 8 17.8
2019-Jun-16 18:46 224 1 gusting 8 17.2
2019-Jun-16 18:41 243 0 gusting 6 17.2
2019-Jun-16 18:36 221 1 gusting 6 17.2
2019-Jun-16 18:31 234 0 gusting 2 17.2
2019-Jun-16 18:16 219 0 gusting 2 17.2
2019-Jun-16 18:11 219 17.8
2019-Jun-16 18:06 224 17.8
2019-Jun-16 18:01 225 0 gusting 4 17.8
2019-Jun-16 17:46 308 17.8
2019-Jun-16 17:41 292 17.8
2019-Jun-16 17:36 240 17.2
2019-Jun-16 17:31 235 0 gusting 1 17.2
2019-Jun-16 17:16 296 17.2
2019-Jun-16 17:11 296 17.2
2019-Jun-16 17:06 299 1 gusting 6 17.8
2019-Jun-16 17:01 297 2 gusting 6 17.8
2019-Jun-16 16:46 320 0 gusting 5 18.9
2019-Jun-16 16:41 301 1 gusting 6 18.9
2019-Jun-16 16:36 320 1 gusting 6 18.3
2019-Jun-16 16:31 316 2 gusting 6 18.3
2019-Jun-16 16:16 227 6 gusting 13 18.9
2019-Jun-16 16:11 237 6 gusting 17 18.9
2019-Jun-16 16:06 224 6 gusting 17 18.9
2019-Jun-16 16:01 216 2 gusting 15 18.9
2019-Jun-16 15:46 214 4 gusting 14 18.3
2019-Jun-16 15:41 196 4 gusting 11 18.9
2019-Jun-16 15:36 226 5 gusting 10 18.9
2019-Jun-16 15:31 209 2 gusting 12 18.9
2019-Jun-16 15:16 219 4 gusting 10 18.3
2019-Jun-16 15:11 219 2 gusting 6 18.3
2019-Jun-16 15:06 191 2 gusting 6 18.3
2019-Jun-16 15:01 192 1 gusting 4 17.8
2019-Jun-16 14:46 231 2 gusting 8 17.2
2019-Jun-16 14:41 219 2 gusting 8 17.2
2019-Jun-16 14:36 193 2 gusting 7 17.8
2019-Jun-16 14:31 220 1 gusting 10 17.8
2019-Jun-16 14:16 222 3 gusting 10 17.2
2019-Jun-16 14:11 225 4 gusting 10 17.8
2019-Jun-16 14:06 232 4 gusting 10 17.8
2019-Jun-16 14:01 227 4 gusting 10 17.8
2019-Jun-16 13:46 225 3 gusting 10 17.8
2019-Jun-16 13:41 179 2 gusting 10 18.3
2019-Jun-16 13:36 210 2 gusting 10 18.3
2019-Jun-16 13:31 222 3 gusting 10 18.3
2019-Jun-16 13:16 179 4 gusting 10 18.3
2019-Jun-16 13:11 185 4 gusting 10 18.3
2019-Jun-16 13:06 202 5 gusting 10 18.3
2019-Jun-16 13:01 191 3 gusting 8 17.8
2019-Jun-16 12:46 183 4 gusting 10 17.8
2019-Jun-16 12:41 195 2 gusting 10 17.8
2019-Jun-16 12:36 181 4 gusting 8 17.8
2019-Jun-16 12:31 216 3 gusting 8 17.2
2019-Jun-16 12:16 215 4 gusting 8 16.7
2019-Jun-16 12:11 222 2 gusting 7 16.7
2019-Jun-16 12:06 215 2 gusting 8 16.7
2019-Jun-16 12:01 232 2 gusting 10 16.7